Location: Tucker Creek Observatory
(37.5564°N, 90.1751°W)
Time: 01:07:21
(UTC-06:00)

N. Korean satellite - Visible Passes

Search period start: 10 December 2018 00:00
Search period end: 20 December 2018 00:00
Orbit: 456 x 511 km, 97.2° (Epoch: 09 December)

Date Brightness Start Highest point End Pass type
(mag) Time Alt. Az. Time Alt. Az. Time Alt. Az.
10 Dec 6.5 06:29:04 10° N 06:32:35 62° WNW 06:36:08 10° SSW visible
10 Dec 10.0 18:38:34 10° WSW 18:39:53 12° W 18:41:12 10° WNW visible
11 Dec 7.3 06:04:33 10° NNE 06:08:03 56° E 06:11:35 10° S visible
11 Dec 8.9 18:12:19 10° SSW 18:15:11 24° W 18:18:03 10° NW visible
12 Dec 9.0 05:40:24 10° NE 05:43:26 25° E 05:46:29 10° SSE visible
12 Dec 7.2 17:47:11 10° S 17:50:33 56° W 17:53:56 10° NNW visible
13 Dec 10.0 05:17:07 10° ENE 05:18:44 13° E 05:20:22 10° ESE visible
13 Dec 6.4 17:22:38 10° SSE 17:25:59 60° ENE 17:29:23 10° N visible
14 Dec 6.5 06:24:12 10° N 06:27:47 73° WNW 06:31:24 10° SSW visible
14 Dec 9.8 18:33:14 10° SW 18:35:01 13° W 18:36:47 10° WNW visible
15 Dec 7.7 05:59:43 10° NNE 06:03:13 48° E 06:06:45 10° S visible
15 Dec 8.7 18:07:18 10° SSW 18:10:18 28° W 18:13:19 10° NW visible
16 Dec 9.2 05:35:40 10° NE 05:38:35 23° E 05:41:31 10° SSE visible
16 Dec 6.9 17:42:17 10° S 17:45:40 66° W 17:49:05 10° NNW visible
17 Dec 10.1 05:12:45 10° ENE 05:13:51 11° E 05:14:59 10° ESE visible
17 Dec 6.6 17:17:48 10° SSE 17:21:07 51° ENE 17:24:29 10° N visible
18 Dec 6.5 06:19:18 10° N 06:22:55 86° WNW 06:26:36 10° SSW visible
18 Dec 9.7 18:27:58 10° SW 18:30:05 15° W 18:32:13 10° NW visible
19 Dec 8.0 05:54:52 10° NNE 05:58:20 42° E 06:01:51 10° S visible
19 Dec 8.4 18:02:16 10° SSW 18:05:22 33° W 18:08:31 10° NNW visible
